time, Switch, Flow(0), Analog(2)
yyyy/mm/dd HH:MM:SS.fff, True=FILTERED|False=TOTAL, L/min, V
2023/07/08 11:00:02.156, True, 4.974, 0.132372
2023/07/08 11:00:02.660, True, 4.974, 0.131380
2023/07/08 11:00:03.164, True, 4.642, 0.132296
2023/07/08 11:00:03.660, True, 4.381, 0.130770
2023/07/08 11:00:04.164, True, 2.653, 0.130083
2023/07/08 11:00:04.668, True, 1.326, 0.130388
2023/07/08 11:00:05.164, True, 1.348, 0.130617
2023/07/08 11:00:05.667, True, 0.663, 0.132448
2023/07/08 11:00:06.172, True, 0.995, 0.130236
2023/07/08 11:00:06.668, True, 1.011, 0.128023
2023/07/08 11:00:07.172, True, 0.663, 0.131380
2023/07/08 11:00:07.676, True, 0.995, 0.131380
2023/07/08 11:00:08.172, True, 0.674, 0.129168
2023/07/08 11:00:08.676, True, 0.995, 0.132372
2023/07/08 11:00:09.180, True, 0.663, 0.130770
2023/07/08 11:00:09.676, True, 1.011, 0.129778
2023/07/08 11:00:10.180, True, 0.663, 0.131228
2023/07/08 11:00:10.684, True, 0.995, 0.128557
2023/07/08 11:00:11.180, True, 0.674, 0.131609
2023/07/08 11:00:11.684, True, 0.995, 0.128862
2023/07/08 11:00:12.187, True, 0.663, 0.128939
2023/07/08 11:00:12.692, True, 0.995, 0.131151
2023/07/08 11:00:13.187, True, 0.674, 0.130312
2023/07/08 11:00:13.691, True, 0.995, 0.130770
2023/07/08 11:00:14.196, True, 0.995, 0.129854
2023/07/08 11:00:14.692, True, 0.674, 0.128939
2023/07/08 11:00:15.196, True, 0.995, 0.129778
2023/07/08 11:00:15.692, True, 0.674, 0.131228
2023/07/08 11:00:16.196, True, 0.663, 0.130694
2023/07/08 11:00:16.700, True, 0.995, 0.129549
2023/07/08 11:00:17.196, True, 0.674, 0.131456
2023/07/08 11:00:17.700, True, 0.995, 0.130846
2023/07/08 11:00:18.204, True, 0.663, 0.132677
2023/07/08 11:00:18.700, True, 1.011, 0.130083
2023/07/08 11:00:19.204, True, 0.663, 0.131380
2023/07/08 11:00:19.700, True, 1.011, 0.129625
2023/07/08 11:00:20.204, True, 0.663, 0.131304
2023/07/08 11:00:20.708, True, 0.995, 0.129549
2023/07/08 11:00:21.204, True, 0.674, 0.130694
2023/07/08 11:00:21.708, True, 0.995, 0.132906
2023/07/08 11:00:22.212, True, 0.663, 0.129473
2023/07/08 11:00:22.708, True, 0.674, 0.132448
2023/07/08 11:00:23.212, True, 0.995, 0.131380
2023/07/08 11:00:23.716, True, 0.995, 0.131304
2023/07/08 11:00:24.212, True, 0.674, 0.129091
2023/07/08 11:00:24.716, True, 0.663, 0.129549
2023/07/08 11:00:25.212, True, 1.011, 0.129931
2023/07/08 11:00:25.716, True, 0.663, 0.128786
2023/07/08 11:00:26.220, True, 0.995, 0.130083
2023/07/08 11:00:26.716, True, 0.674, 0.131991
2023/07/08 11:00:27.220, True, 0.995, 0.130694
2023/07/08 11:00:27.724, True, 0.663, 0.130770
2023/07/08 11:00:28.220, True, 1.011, 0.130465
2023/07/08 11:00:28.723, True, 0.663, 0.132753
2023/07/08 11:00:29.227, True, 0.663, 0.133135
2023/07/08 11:00:29.724, True, 1.011, 0.130007
2023/07/08 11:00:30.228, True, 0.995, 0.130922
2023/07/08 11:00:30.732, True, 0.663, 0.131685
2023/07/08 11:00:31.228, True, 0.674, 0.131304
2023/07/08 11:00:31.732, True, 0.996, 0.132219
2023/07/08 11:00:32.236, True, 0.994, 0.130312
2023/07/08 11:00:32.731, True, 0.675, 0.131533
2023/07/08 11:00:33.236, True, 0.662, 0.133669
2023/07/08 11:00:33.740, True, 0.995, 0.130999
2023/07/08 11:00:34.236, True, 0.674, 0.131838
2023/07/08 11:00:34.740, True, 0.995, 0.131838
2023/07/08 11:00:35.236, True, 0.674, 0.131228
2023/07/08 11:00:35.740, True, 0.995, 0.129397
2023/07/08 11:00:36.244, True, 0.663, 0.130083
2023/07/08 11:00:36.748, True, 0.995, 0.130999
2023/07/08 11:00:37.244, True, 0.674, 0.131304
2023/07/08 11:00:37.748, True, 0.995, 0.129625
2023/07/08 11:00:38.244, True, 0.674, 0.131838
2023/07/08 11:00:38.748, True, 0.995, 0.129854
2023/07/08 11:00:39.252, True, 0.663, 0.131075
2023/07/08 11:00:39.748, True, 1.011, 0.131914
2023/07/08 11:00:40.252, True, 0.663, 0.130312
2023/07/08 11:00:40.756, True, 0.995, 0.129778
2023/07/08 11:00:41.252, True, 0.674, 0.130083
2023/07/08 11:00:41.755, True, 0.663, 0.131609
2023/07/08 11:00:42.259, True, 0.995, 0.131685
2023/07/08 11:00:42.764, True, 0.663, 0.131991
2023/07/08 11:00:43.260, True, 1.011, 0.129473
2023/07/08 11:00:43.763, True, 0.663, 0.129778
2023/07/08 11:00:44.259, True, 1.011, 0.131228
2023/07/08 11:00:44.764, True, 0.664, 0.132525
2023/07/08 11:00:45.267, True, 0.995, 0.129931
2023/07/08 11:00:45.772, True, 0.664, 0.131533
2023/07/08 11:00:46.268, True, 0.674, 0.130312
2023/07/08 11:00:46.771, True, 0.993, 0.128176
2023/07/08 11:00:47.276, True, 0.664, 0.131609
2023/07/08 11:00:47.771, True, 0.674, 0.128634
2023/07/08 11:00:48.275, True, 0.994, 0.129625
2023/07/08 11:00:48.780, True, 0.664, 0.129702
2023/07/08 11:00:49.276, True, 1.011, 0.130388
2023/07/08 11:00:49.780, True, 0.995, 0.130541
2023/07/08 11:00:50.284, True, 0.663, 0.128176
2023/07/08 11:00:50.780, True, 0.674, 0.130007
2023/07/08 11:00:51.284, True, 0.994, 0.130159
2023/07/08 11:00:51.788, True, 0.995, 0.130541
2023/07/08 11:00:52.284, True, 0.674, 0.133593
2023/07/08 11:00:52.788, True, 0.995, 0.130388
2023/07/08 11:00:53.292, True, 0.663, 0.130312
2023/07/08 11:00:53.787, True, 1.011, 0.130388
2023/07/08 11:00:54.291, True, 0.664, 0.129473
2023/07/08 11:00:54.795, True, 0.993, 0.130541
2023/07/08 11:00:55.292, True, 0.674, 0.131533
2023/07/08 11:00:55.795, True, 0.995, 0.130465
2023/07/08 11:00:56.300, True, 0.663, 0.131380
2023/07/08 11:00:56.796, True, 1.011, 0.131991
2023/07/08 11:00:57.300, True, 0.663, 0.132525
2023/07/08 11:00:57.804, True, 0.995, 0.132296
2023/07/08 11:00:58.300, True, 0.674, 0.132525
2023/07/08 11:00:58.804, True, 0.663, 0.133288
2023/07/08 11:00:59.308, True, 0.995, 0.131151
2023/07/08 11:00:59.804, True, 0.674, 0.127337
2023/07/08 11:01:00.308, True, 0.995, 0.131151
2023/07/08 11:01:00.812, True, 0.663, 0.129931
2023/07/08 11:01:01.308, True, 1.011, 0.130465
2023/07/08 11:01:01.811, True, 0.664, 0.130846
2023/07/08 11:01:02.316, True, 0.994, 0.128939
2023/07/08 11:01:02.812, True, 0.674, 0.132219
2023/07/08 11:01:03.315, True, 0.995, 0.129778
2023/07/08 11:01:03.820, True, 0.663, 0.130770
2023/07/08 11:01:04.316, True, 1.011, 0.131838
2023/07/08 11:01:04.820, True, 0.663, 0.131838
2023/07/08 11:01:05.316, True, 0.674, 0.131151
2023/07/08 11:01:05.820, True, 0.995, 0.130083
2023/07/08 11:01:06.324, True, 0.663, 0.130465
2023/07/08 11:01:06.820, True, 1.011, 0.131685
2023/07/08 11:01:07.324, True, 0.995, 0.130541
2023/07/08 11:01:07.827, True, 0.663, 0.131228
2023/07/08 11:01:08.324, True, 0.674, 0.131075
2023/07/08 11:01:08.828, True, 0.995, 0.133211
2023/07/08 11:01:09.332, True, 0.663, 0.131228
2023/07/08 11:01:09.828, True, 0.674, 0.133974
2023/07/08 11:01:10.332, True, 0.995, 0.132067
2023/07/08 11:01:10.836, True, 0.663, 0.131304
2023/07/08 11:01:11.340, True, 0.995, 0.132753
2023/07/08 11:01:11.836, True, 0.674, 0.130465
2023/07/08 11:01:12.339, True, 0.995, 0.133288
2023/07/08 11:01:12.844, True, 0.663, 0.129702
2023/07/08 11:01:13.340, True, 1.011, 0.134356
2023/07/08 11:01:13.844, True, 0.663, 0.133059
2023/07/08 11:01:14.348, True, 0.995, 0.135119
2023/07/08 11:01:14.844, True, 0.674, 0.132219
2023/07/08 11:01:15.348, True, 0.995, 0.130999
2023/07/08 11:01:15.852, True, 0.663, 0.131380
2023/07/08 11:01:16.348, True, 1.011, 0.134661
2023/07/08 11:01:16.852, True, 0.663, 0.132448
2023/07/08 11:01:17.348, True, 1.011, 0.132448
2023/07/08 11:01:17.852, True, 0.663, 0.134966
2023/07/08 11:01:18.356, True, 0.995, 0.133288
2023/07/08 11:01:18.851, True, 0.674, 0.133898
2023/07/08 11:01:19.356, True, 0.995, 0.134127
2023/07/08 11:01:19.860, True, 0.664, 0.132067
2023/07/08 11:01:20.363, True, 0.663, 0.133822
2023/07/08 11:01:20.859, True, 0.674, 0.134890
2023/07/08 11:01:21.363, True, 0.995, 0.133059
2023/07/08 11:01:21.867, True, 0.663, 0.134890
2023/07/08 11:01:22.363, True, 1.011, 0.134127
2023/07/08 11:01:22.868, True, 0.663, 0.133288
2023/07/08 11:01:23.371, True, 0.995, 0.135805
2023/07/08 11:01:23.867, True, 0.674, 0.132601
2023/07/08 11:01:24.371, True, 0.995, 0.135729
2023/07/08 11:01:24.876, True, 0.664, 0.136263
2023/07/08 11:01:25.371, True, 1.010, 0.135348
2023/07/08 11:01:25.875, True, 0.663, 0.134051
2023/07/08 11:01:26.380, True, 0.996, 0.132525
2023/07/08 11:01:26.876, True, 0.674, 0.133135
2023/07/08 11:01:27.379, True, 0.663, 0.134966
2023/07/08 11:01:27.884, True, 0.996, 0.134432
2023/07/08 11:01:28.388, True, 0.663, 0.134585
2023/07/08 11:01:28.884, True, 1.009, 0.135348
2023/07/08 11:01:29.388, True, 0.664, 0.135882
2023/07/08 11:01:29.892, True, 0.995, 0.134585
2023/07/08 11:01:30.387, True, 0.674, 0.135500
2023/07/08 11:01:30.892, True, 0.662, 0.135042
2023/07/08 11:01:31.395, True, 0.997, 0.133364
2023/07/08 11:01:31.892, True, 0.673, 0.133059
2023/07/08 11:01:32.396, True, 0.996, 0.135958
2023/07/08 11:01:32.900, True, 0.662, 0.137713
2023/07/08 11:01:33.396, True, 1.011, 0.134432
2023/07/08 11:01:33.900, True, 0.663, 0.136187
2023/07/08 11:01:34.404, True, 0.994, 0.135653
2023/07/08 11:01:34.900, True, 0.674, 0.135500
2023/07/08 11:01:35.404, True, 0.994, 0.135424
2023/07/08 11:01:35.908, True, 0.663, 0.134813
2023/07/08 11:01:36.404, True, 0.674, 0.135576
2023/07/08 11:01:36.908, True, 0.995, 0.136034
2023/07/08 11:01:37.412, True, 0.664, 0.138094
2023/07/08 11:01:37.908, True, 1.009, 0.136492
2023/07/08 11:01:38.412, True, 0.663, 0.136339
2023/07/08 11:01:38.915, True, 0.995, 0.136416
2023/07/08 11:01:39.412, True, 0.674, 0.136110
2023/07/08 11:01:39.916, True, 0.995, 0.137942
2023/07/08 11:01:40.420, True, 0.663, 0.133440
2023/07/08 11:01:40.916, True, 1.011, 0.135195
2023/07/08 11:01:41.420, True, 0.663, 0.136339
2023/07/08 11:01:41.924, True, 0.996, 0.136416
2023/07/08 11:01:42.420, True, 0.673, 0.134737
2023/07/08 11:01:42.924, True, 0.995, 0.136034
2023/07/08 11:01:43.428, True, 0.663, 0.136950
2023/07/08 11:01:43.924, True, 1.011, 0.136110
2023/07/08 11:01:44.428, True, 0.663, 0.136797
2023/07/08 11:01:44.932, True, 0.995, 0.137255
2023/07/08 11:01:45.428, True, 0.674, 0.135500
2023/07/08 11:01:45.932, True, 0.995, 0.137179
2023/07/08 11:01:46.436, True, 0.663, 0.137331
2023/07/08 11:01:46.932, True, 1.010, 0.136034
2023/07/08 11:01:47.436, True, 0.663, 0.136034
2023/07/08 11:01:47.940, True, 0.663, 0.137636
2023/07/08 11:01:48.436, True, 1.011, 0.137560
2023/07/08 11:01:48.940, True, 0.663, 0.135653
2023/07/08 11:01:49.436, True, 1.011, 0.138247
2023/07/08 11:01:49.940, True, 0.663, 0.136873
2023/07/08 11:01:50.444, True, 0.996, 0.139010
2023/07/08 11:01:50.948, True, 0.662, 0.137789
2023/07/08 11:01:51.444, True, 1.011, 0.137255
2023/07/08 11:01:51.948, True, 0.663, 0.136797
2023/07/08 11:01:52.444, True, 1.011, 0.136263
2023/07/08 11:01:52.948, True, 0.663, 0.135882
2023/07/08 11:01:53.452, True, 0.995, 0.138476
2023/07/08 11:01:53.956, True, 0.663, 0.139010
2023/07/08 11:01:54.452, True, 1.011, 0.136416
2023/07/08 11:01:54.956, True, 0.663, 0.137331
2023/07/08 11:01:55.460, True, 0.663, 0.135882
2023/07/08 11:01:55.956, True, 1.011, 0.137789
2023/07/08 11:01:56.460, True, 0.663, 0.138247
2023/07/08 11:01:56.964, True, 0.995, 0.137560
2023/07/08 11:01:57.460, True, 0.674, 0.137484
2023/07/08 11:01:57.964, True, 0.995, 0.137713
2023/07/08 11:01:58.460, True, 0.674, 0.136492
2023/07/08 11:01:58.964, True, 0.995, 0.137942
2023/07/08 11:01:59.468, True, 0.663, 0.137407
2023/07/08 11:01:59.964, True, 1.011, 0.138094
2023/07/08 11:02:00.468, True, 0.664, 0.138705
2023/07/08 11:02:00.972, True, 0.993, 0.136721
2023/07/08 11:02:01.468, True, 0.674, 0.137407
2023/07/08 11:02:01.972, True, 0.663, 0.138094
2023/07/08 11:02:02.476, True, 0.995, 0.137713
2023/07/08 11:02:02.972, True, 0.674, 0.138628
2023/07/08 11:02:03.476, True, 0.663, 0.138552
2023/07/08 11:02:03.980, True, 0.995, 0.138323
2023/07/08 11:02:04.476, True, 0.674, 0.136416
2023/07/08 11:02:04.980, True, 0.995, 0.138933
2023/07/08 11:02:05.484, True, 0.663, 0.138018
2023/07/08 11:02:05.980, True, 0.674, 0.137560
2023/07/08 11:02:06.484, True, 0.995, 0.137102
2023/07/08 11:02:06.988, True, 0.663, 0.137560
2023/07/08 11:02:07.484, True, 1.012, 0.140307
2023/07/08 11:02:07.988, True, 0.662, 0.138628
2023/07/08 11:02:08.492, True, 0.663, 0.135805
2023/07/08 11:02:08.988, True, 1.011, 0.137407
2023/07/08 11:02:09.492, True, 0.995, 0.137102
2023/07/08 11:02:09.996, True, 0.663, 0.137407
2023/07/08 11:02:10.492, True, 1.011, 0.139696
2023/07/08 11:02:10.996, True, 0.663, 0.137255
2023/07/08 11:02:11.500, True, 0.663, 0.138933
2023/07/08 11:02:11.996, True, 1.011, 0.138018
2023/07/08 11:02:12.500, True, 0.995, 0.136034
2023/07/08 11:02:13.003, True, 0.663, 0.139620
2023/07/08 11:02:13.500, True, 0.674, 0.141527
2023/07/08 11:02:14.004, True, 0.995, 0.139925
2023/07/08 11:02:14.508, True, 0.663, 0.139696
2023/07/08 11:02:15.004, True, 1.011, 0.136950
2023/07/08 11:02:15.508, True, 0.663, 0.138399
2023/07/08 11:02:16.012, True, 0.995, 0.137789
2023/07/08 11:02:16.516, True, 0.663, 0.136492
2023/07/08 11:02:17.011, True, 1.011, 0.137331
2023/07/08 11:02:17.516, True, 0.664, 0.140383
2023/07/08 11:02:18.020, True, 0.994, 0.138399
2023/07/08 11:02:18.516, True, 0.674, 0.139162
2023/07/08 11:02:19.020, True, 0.995, 0.137484
2023/07/08 11:02:19.524, True, 0.663, 0.138933
2023/07/08 11:02:20.020, True, 1.011, 0.136950
2023/07/08 11:02:20.524, True, 0.663, 0.138247
2023/07/08 11:02:21.028, True, 0.663, 0.139162
2023/07/08 11:02:21.524, True, 1.011, 0.137789
2023/07/08 11:02:22.028, True, 0.663, 0.138705
2023/07/08 11:02:22.524, True, 1.011, 0.137102
2023/07/08 11:02:23.028, True, 0.663, 0.138705
2023/07/08 11:02:23.532, True, 0.995, 0.137407
2023/07/08 11:02:24.028, True, 0.674, 0.138933
2023/07/08 11:02:24.532, True, 0.663, 0.138933
2023/07/08 11:02:25.036, True, 0.995, 0.139162
2023/07/08 11:02:25.532, True, 0.674, 0.139162
2023/07/08 11:02:26.036, True, 0.995, 0.139620
2023/07/08 11:02:26.540, True, 0.663, 0.137102
2023/07/08 11:02:27.036, True, 1.011, 0.137331
2023/07/08 11:02:27.540, True, 0.663, 0.137636
2023/07/08 11:02:28.044, True, 0.995, 0.137484
2023/07/08 11:02:28.540, True, 0.674, 0.137560
2023/07/08 11:02:29.044, True, 0.663, 0.138170
2023/07/08 11:02:29.548, True, 0.995, 0.137713
2023/07/08 11:02:30.044, True, 1.011, 0.137789
2023/07/08 11:02:30.548, True, 0.663, 0.137407
2023/07/08 11:02:31.044, True, 1.012, 0.137865
2023/07/08 11:02:31.548, True, 0.662, 0.138933
2023/07/08 11:02:32.052, True, 0.995, 0.139315
2023/07/08 11:02:32.556, True, 0.663, 0.138552
2023/07/08 11:02:33.052, True, 0.674, 0.139773
2023/07/08 11:02:33.555, True, 0.995, 0.138552
2023/07/08 11:02:34.052, True, 0.674, 0.135805
2023/07/08 11:02:34.556, True, 0.663, 0.139086
2023/07/08 11:02:35.060, True, 0.995, 0.138552
2023/07/08 11:02:35.556, True, 0.674, 0.138781
2023/07/08 11:02:36.060, True, 0.663, 0.138247
2023/07/08 11:02:36.564, True, 0.995, 0.140078
2023/07/08 11:02:37.068, True, 0.663, 0.138476
2023/07/08 11:02:37.564, True, 1.011, 0.139162
2023/07/08 11:02:38.068, True, 0.663, 0.138857
2023/07/08 11:02:38.572, True, 0.663, 0.138247
2023/07/08 11:02:39.068, True, 1.011, 0.139467
2023/07/08 11:02:39.572, True, 0.663, 0.137942
2023/07/08 11:02:40.076, True, 0.995, 0.139773
2023/07/08 11:02:40.571, True, 0.674, 0.138170
2023/07/08 11:02:41.076, True, 0.995, 0.138323
2023/07/08 11:02:41.580, True, 0.663, 0.135653
2023/07/08 11:02:42.076, True, 1.011, 0.139239
2023/07/08 11:02:42.580, True, 0.663, 0.137102
2023/07/08 11:02:43.076, True, 1.011, 0.139239
2023/07/08 11:02:43.580, True, 0.663, 0.138781
2023/07/08 11:02:44.084, True, 0.664, 0.137636
2023/07/08 11:02:44.580, True, 1.010, 0.137942
2023/07/08 11:02:45.084, True, 0.663, 0.141299
2023/07/08 11:02:45.588, True, 0.995, 0.140612
2023/07/08 11:02:46.084, True, 1.011, 0.138476
2023/07/08 11:02:46.588, True, 0.663, 0.138170
2023/07/08 11:02:47.091, True, 0.664, 0.138323
2023/07/08 11:02:47.596, True, 0.995, 0.139239
2023/07/08 11:02:48.092, True, 1.009, 0.137636
2023/07/08 11:02:48.596, True, 0.664, 0.138705
2023/07/08 11:02:49.100, True, 0.663, 0.137713
2023/07/08 11:02:49.596, True, 1.011, 0.137026
2023/07/08 11:02:50.100, True, 0.663, 0.140078
2023/07/08 11:02:50.604, True, 0.995, 0.136721
2023/07/08 11:02:51.100, True, 0.674, 0.138781
2023/07/08 11:02:51.604, True, 0.996, 0.140078
2023/07/08 11:02:52.108, True, 0.662, 0.137179
2023/07/08 11:02:52.604, True, 1.011, 0.139010
2023/07/08 11:02:53.108, True, 0.663, 0.139086
2023/07/08 11:02:53.612, True, 0.995, 0.137789
2023/07/08 11:02:54.108, True, 0.674, 0.136416
2023/07/08 11:02:54.612, True, 0.663, 0.138094
2023/07/08 11:02:55.116, True, 0.995, 0.139086
2023/07/08 11:02:55.611, True, 0.674, 0.137636
2023/07/08 11:02:56.116, True, 0.995, 0.139010
2023/07/08 11:02:56.620, True, 0.664, 0.139086
2023/07/08 11:02:57.116, True, 0.673, 0.139239
2023/07/08 11:02:57.620, True, 0.995, 0.139315
2023/07/08 11:02:58.123, True, 0.664, 0.138094
2023/07/08 11:02:58.619, True, 1.010, 0.138933
2023/07/08 11:02:59.124, True, 0.663, 0.137789
2023/07/08 11:02:59.628, True, 0.995, 0.138705
2023/07/08 11:03:00.124, True, 0.673, 0.137179
2023/07/08 11:03:00.628, True, 0.664, 0.140307
2023/07/08 11:03:01.132, True, 0.995, 0.140459
2023/07/08 11:03:01.628, True, 0.673, 0.140383
2023/07/08 11:03:02.132, True, 0.996, 0.139925
2023/07/08 11:03:02.636, True, 0.663, 0.136645
2023/07/08 11:03:03.131, True, 1.012, 0.135805
2023/07/08 11:03:03.636, True, 0.662, 0.138170
2023/07/08 11:03:04.140, True, 0.995, 0.139010
2023/07/08 11:03:04.635, True, 0.675, 0.140230
2023/07/08 11:03:05.140, True, 0.995, 0.138705
2023/07/08 11:03:05.644, True, 0.662, 0.137331
2023/07/08 11:03:06.140, True, 0.674, 0.136416
2023/07/08 11:03:06.644, True, 0.996, 0.137560
2023/07/08 11:03:07.148, True, 0.662, 0.136645
2023/07/08 11:03:07.644, True, 0.674, 0.135424
2023/07/08 11:03:08.148, True, 0.995, 0.139162
2023/07/08 11:03:08.652, True, 0.664, 0.138247
2023/07/08 11:03:09.148, True, 1.009, 0.138247
2023/07/08 11:03:09.652, True, 0.663, 0.136187
2023/07/08 11:03:10.156, True, 0.996, 0.138628
2023/07/08 11:03:10.652, True, 0.673, 0.137407
2023/07/08 11:03:11.156, True, 0.995, 0.139620
2023/07/08 11:03:11.660, True, 0.663, 0.138247
2023/07/08 11:03:12.156, True, 1.011, 0.139086
2023/07/08 11:03:12.660, True, 0.663, 0.138247
2023/07/08 11:03:13.164, True, 0.995, 0.138247
2023/07/08 11:03:13.668, True, 0.663, 0.138628
2023/07/08 11:03:14.164, True, 1.011, 0.137102
2023/07/08 11:03:14.668, True, 0.663, 0.139696
2023/07/08 11:03:15.171, True, 0.995, 0.139239
2023/07/08 11:03:15.668, True, 0.674, 0.137789
2023/07/08 11:03:16.171, True, 0.997, 0.138628
2023/07/08 11:03:16.676, True, 0.662, 0.137026
2023/07/08 11:03:17.172, True, 0.674, 0.138399
2023/07/08 11:03:17.676, True, 0.995, 0.136339
2023/07/08 11:03:18.180, True, 0.663, 0.137560
2023/07/08 11:03:18.676, True, 1.013, 0.135424
2023/07/08 11:03:19.180, True, 0.662, 0.139239
2023/07/08 11:03:19.684, True, 0.996, 0.137484
2023/07/08 11:03:20.187, True, 0.662, 0.136645
2023/07/08 11:03:20.683, True, 0.674, 0.136492
2023/07/08 11:03:21.188, True, 0.995, 0.138247
2023/07/08 11:03:21.692, True, 0.663, 0.138018
2023/07/08 11:03:22.188, True, 1.011, 0.137407
2023/07/08 11:03:22.691, True, 0.663, 0.140764
2023/07/08 11:03:23.196, True, 0.995, 0.136797
2023/07/08 11:03:23.692, True, 0.674, 0.138399
2023/07/08 11:03:24.196, True, 0.995, 0.137636
2023/07/08 11:03:24.700, True, 0.663, 0.138018
2023/07/08 11:03:25.196, True, 0.674, 0.138399
2023/07/08 11:03:25.700, True, 0.995, 0.137636
2023/07/08 11:03:26.204, True, 0.995, 0.137407
2023/07/08 11:03:26.700, True, 0.674, 0.138552
2023/07/08 11:03:27.204, True, 0.663, 0.138170
2023/07/08 11:03:27.700, True, 1.011, 0.137560
2023/07/08 11:03:28.204, True, 0.994, 0.138323
2023/07/08 11:03:28.708, True, 0.663, 0.136950
2023/07/08 11:03:29.212, True, 0.663, 0.138170
2023/07/08 11:03:29.708, True, 1.011, 0.136645
2023/07/08 11:03:30.212, True, 0.663, 0.138552
2023/07/08 11:03:30.716, True, 0.995, 0.139239
2023/07/08 11:03:31.212, True, 0.674, 0.137636
2023/07/08 11:03:31.716, True, 0.995, 0.138018
2023/07/08 11:03:32.220, True, 0.663, 0.140002
2023/07/08 11:03:32.716, True, 1.011, 0.138018
2023/07/08 11:03:33.220, True, 0.663, 0.137407
2023/07/08 11:03:33.723, True, 0.995, 0.137865
2023/07/08 11:03:34.220, True, 0.674, 0.139162
2023/07/08 11:03:34.724, True, 0.663, 0.137713
2023/07/08 11:03:35.220, True, 1.011, 0.138628
2023/07/08 11:03:35.724, True, 0.664, 0.137789
2023/07/08 11:03:36.228, True, 0.663, 0.139925
2023/07/08 11:03:36.724, True, 1.013, 0.139773
2023/07/08 11:03:37.228, True, 0.662, 0.138094
2023/07/08 11:03:37.732, True, 0.995, 0.137636
2023/07/08 11:03:38.236, True, 0.663, 0.137331
2023/07/08 11:03:38.732, True, 1.011, 0.138552
2023/07/08 11:03:39.236, True, 0.664, 0.136950
2023/07/08 11:03:39.740, True, 0.662, 0.136416
2023/07/08 11:03:40.236, True, 1.011, 0.138399
2023/07/08 11:03:40.740, True, 0.663, 0.136416
2023/07/08 11:03:41.243, True, 0.664, 0.139315
2023/07/08 11:03:41.748, True, 0.993, 0.136873
2023/07/08 11:03:42.244, True, 0.674, 0.136721
2023/07/08 11:03:42.747, True, 0.663, 0.135805
2023/07/08 11:03:43.252, True, 0.995, 0.137331
2023/07/08 11:03:43.748, True, 0.674, 0.136797
2023/07/08 11:03:44.252, True, 0.995, 0.136034
2023/07/08 11:03:44.756, True, 0.663, 0.138476
2023/07/08 11:03:45.252, True, 1.011, 0.138170
2023/07/08 11:03:45.756, True, 0.663, 0.136263
2023/07/08 11:03:46.260, True, 0.995, 0.135882
2023/07/08 11:03:46.756, True, 0.674, 0.139086
2023/07/08 11:03:47.260, True, 0.663, 0.137713
2023/07/08 11:03:47.755, True, 1.012, 0.139315
2023/07/08 11:03:48.260, True, 0.663, 0.137484
2023/07/08 11:03:48.764, True, 0.663, 0.138323
2023/07/08 11:03:49.260, True, 1.011, 0.136797
2023/07/08 11:03:49.764, True, 0.663, 0.137484
2023/07/08 11:03:50.268, True, 0.995, 0.134661
2023/07/08 11:03:50.764, True, 0.674, 0.138094
2023/07/08 11:03:51.268, True, 0.663, 0.137407
2023/07/08 11:03:51.772, True, 0.995, 0.136263
2023/07/08 11:03:52.268, True, 0.675, 0.139086
2023/07/08 11:03:52.772, True, 0.994, 0.139391
2023/07/08 11:03:53.276, True, 0.663, 0.137942
2023/07/08 11:03:53.772, True, 0.674, 0.135348
2023/07/08 11:03:54.276, True, 0.996, 0.137560
2023/07/08 11:03:54.780, True, 0.662, 0.137407
2023/07/08 11:03:55.284, True, 0.995, 0.137331
2023/07/08 11:03:55.780, True, 0.674, 0.137865
2023/07/08 11:03:56.284, True, 0.995, 0.135882
2023/07/08 11:03:56.788, True, 0.663, 0.137255
2023/07/08 11:03:57.284, True, 1.011, 0.138476
2023/07/08 11:03:57.788, True, 0.663, 0.137560
2023/07/08 11:03:58.291, True, 0.664, 0.137179
2023/07/08 11:03:58.787, True, 1.010, 0.134508
2023/07/08 11:03:59.292, True, 0.664, 0.137255
2023/07/08 11:03:59.796, True, 0.994, 0.137407
2023/07/08 11:04:00.292, True, 1.011, 0.137179
2023/07/08 11:04:00.795, True, 0.663, 0.137865
2023/07/08 11:04:01.300, True, 0.663, 0.139010
2023/07/08 11:04:01.796, True, 1.011, 0.135958
2023/07/08 11:04:02.300, True, 0.663, 0.136492
2023/07/08 11:04:02.796, True, 0.674, 0.136797
2023/07/08 11:04:03.300, True, 0.995, 0.136034
2023/07/08 11:04:03.803, True, 0.995, 0.135882
2023/07/08 11:04:04.300, True, 0.674, 0.135424
2023/07/08 11:04:04.804, True, 0.663, 0.137407
2023/07/08 11:04:05.308, True, 0.995, 0.136721
2023/07/08 11:04:05.804, True, 0.674, 0.136873
2023/07/08 11:04:06.308, True, 0.995, 0.137255
2023/07/08 11:04:06.812, True, 0.663, 0.138247
2023/07/08 11:04:07.308, True, 1.011, 0.136034
2023/07/08 11:04:07.812, True, 0.663, 0.137560
2023/07/08 11:04:08.316, True, 0.995, 0.137789
2023/07/08 11:04:08.812, True, 0.674, 0.136645
2023/07/08 11:04:09.316, True, 0.663, 0.137865
2023/07/08 11:04:09.820, True, 0.994, 0.134508
2023/07/08 11:04:10.316, True, 1.011, 0.137560
2023/07/08 11:04:10.820, True, 0.664, 0.138094
2023/07/08 11:04:11.323, True, 0.994, 0.137331